INTELSAT 33E DEB, 62004

Orbit data source: Space-Track

INTELSAT 33E DEB, 62004 is space debris in GEO originally from a launch on Wed, 24 Aug 2016 UTC launched from the French Guiana (FRGUI). Debris objects in space refer to the collection of defunct objects orbiting the Earth. Examples of debris include non-operational satellites, rocket bodies, and fragments generated from explosions, collisions, or faulty payload assembly.

Loading next visibility...
Identifier
62004, 2016-053W
Orbit
GEO
Country
Flag of USUS / ITSO
Related business
Manufacturer
Boeing/ES
Mission
Spacecraft
Bus & Motor
Unknown
Mass
Unknown
Launch date (UTC)
2016-08-24 (10 years ago)
Launch vehicle
Unknown
Launch site
French Guiana (FRGUI)
Object type
Payload
Rocket body
Debris
Shape & HBR
Unknown shape, 1.1 m
Radar Cross Section
RCS unknown

Expand to show TLE details & history
Last TLE update: 2 days ago

TLE from 2 days ago
0 INTELSAT 33E DEB
1 62004U 16053W   26256.76390761 -.00000058  00000-0  00000-0 0  9991
2 62004   2.7139 110.8078 0207761 283.4981  74.6690  1.02632655  7121
Epoch: 2026-09-13T18:20Z
TLE epoch observation values (Epoch: 2026-09-13T18:20:01.617Z)
Latitude
-0°
Longitude
-156.47905°
Altitude
34,929.435 km
Speed
3.114 km/s
True Right ascension
07h 25m 07s
True Declination
0° 00' 00"
Sunlit
Object was in daylight at epoch
Visualization orbit readout
Latitude
Unknown
Longitude
Unknown
Altitude
Unknown
Speed
Unknown
Apparent Right ascension
Unknown
Apparent Declination
Unknown
Sunlit
N/A
Visualization observer readout
Local Sidereal Time
03:11:48
Azimuth
Unknown
Elevation
Unknown
Doppler factor
Unknown
Orbital elements
Apogee altitude
36,001.116 km
Perigee altitude
34,276.005 km
Semi-major axis
41,516.697 km
Eccentricity
0.02078
Inclination
2.7139°
RAAN
110.8078°
Arg. of periapsis
283.4981°
True anomaly
76.98029°
Mean anomaly
74.669°
Eccentric anomaly
75.82313°
Mean motion
0.25657 °/min
Orbital period
1,403.12 mins
BSTAR
0
Loading maneuver chart data...
Computing Atmospheric mass density...
Loading historical data...
Loading historical data...
Loading historical data...
Loading historical data...
Loading historical data...
Loading historical data...
Loading historical data...

Documentation

Showing up to 5 results
|